Regional Weather Roundup
Issued by NWS Charleston, SC

Current Version | Previous Version | Graphics & Text | Print | Product List | Glossary On
Versions: 1 2 3 4 5 6 7 8 9 10 11 12 13 14 15 16 17 18 19 20 21 22 23 24 25 26 27 28 29 30 31 32 33 34 35 36 37 38 39 40 41 42 43 44 45 46 47 48 49 50
000
ASUS42 KCHS 230327
RWRCHS

REGIONAL WEATHER ROUNDUP
NATIONAL WEATHER SERVICE CHARLESTON SC
1100 PM EDT THU JUN 22 2017

NOTE: "FAIR" INDICATES FEW OR NO CLOUDS BELOW 12,000 FEET WITH NO
SIGNIFICANT WEATHER AND/OR OBSTRUCTIONS TO VISIBILITY.

NOT ALL STATIONS ARE QUALITY CONTROLLED. USE DATA WITH CAUTION...
ESPECIALLY DEWPOINT OBSERVATIONS.

SCZ027-030-031-034>040-042>050-230400-
...SOUTHEAST SOUTH CAROLINA...

CITY           SKY/WX    TMP DP  RH WIND       PRES   REMARKS
N CHARLESTON   CLOUDY    79  75  87 S7        30.08R
WATERFRONT PRK   N/A     81  78  91 S6        30.07R
JOHNS ISLAND   MOCLDY    81  79  94 S8        30.09S
PINOPOLIS        N/A     75  75 100 VRB3      30.00S
MONCKS CORNER  FAIR      73  73 100 CALM      30.08S
SUMMERVILLE    FAIR      73  73 100 CALM      30.09R
BEAUFORT MCAS  MOCLDY    82  78  88 S6        30.08R HX  91
BEAUFORT ARPT  FAIR      79  77  94 S9        30.08S
HILTON HEAD IS MOCLDY    81  79  94 S9        30.09S
WALTERBORO     PTCLDY    77  75  94 S6        30.09R
ALLENDALE      FAIR      79  77  94 S6        30.06S

...SOUTHERN MIDLANDS AND PEE DEE...

CITY           SKY/WX    TMP DP  RH WIND       PRES   REMARKS
GEORGETOWN     FAIR      77  75  94 S5        30.09S
KINGSTREE      FAIR      73  72  94 CALM      30.08R
ORANGEBURG     PTCLDY    75  74  96 SE3       30.08R
BARNWELL       FAIR      79  79 100 SE6       30.07R
AIKEN          FAIR      77  73  88 SE8       30.10S
MANNING        FAIR      72  72 100 S5        30.08S
COLUMBIA       CLOUDY    78  73  84 SE6       30.06R
SUMTER         PTCLDY    75  72  90 CALM      30.05R
FLORENCE       CLOUDY    76  75  97 SE3       30.07S
MYRTLE BEACH   NOT AVBL
N MYRTLE BEACH CLOUDY    80  78  94 S7        30.07F

$$

GAZ063-065-086>088-099>101-113>116-118-119-134>141-150-230400-
...SOUTHEAST GEORGIA...

CITY           SKY/WX    TMP DP  RH WIND       PRES   REMARKS
SAVANNAH ARPT  CLOUDY    81  75  82 SE7       30.08R
HUNTER AAF     PTCLDY    81  77  87 S3        30.05R
FORT STEWART   CLOUDY    80  75  86 SE6       30.05S
STATESBORO     CLOUDY    80  80 100 S6        30.07R
SYLVANIA       CLOUDY    80  79  96 CALM      30.08R
CLAXTON        FAIR     N/A N/A N/A CALM      30.08R

...CSRA...CENTRAL AND FAR SOUTHEAST GEORGIA...

CITY           SKY/WX    TMP DP  RH WIND       PRES   REMARKS
THOMSON        CLOUDY    80  75  85 SW6       30.10S
AUGUSTA-BUSH   CLOUDY    81  77  88 S7        30.04R
AUGUSTA-DANIEL CLOUDY    81  74  79 SE7       30.06R
SWAINSBORO     FAIR      79  75  89 S6        30.08R
VIDALIA        CLOUDY    77  75  94 CALM      30.08R
EASTMAN        FAIR      79  64  59 S5        30.09R
HAZLEHURST     FAIR      79  77  94 SE3       30.06R
ALMA           PTCLDY    79  74  84 SE3       30.06R
WAYCROSS       NOT AVBL
JESUP          FAIR      79  73  83 SE3       30.08R
BAXLEY         FAIR      77  77 100 CALM      30.07S
BRUNSWICK      CLOUDY    81  79  94 S10       30.09R
SAINT SIMONS   PTCLDY    82  77  84 S8        30.08R HX  90

$$

SCZ027-028-034-036>038-045-046-048>050-GAZ119-141-230400-
...LAKE AND SUPPLEMENTAL COASTAL OBSERVATIONS...

STATION/POSITION TIME  TEMP    WIND        PRES    WAVE   SWELL
                       AIR SEA DIR/SP/G            HT/PER HT/PER/DIR
                 (UTC) (F)     (DEG/KT/KT) (MB)    (FT/S) (FT/S/D)
WINYAH BAY       0245   79     210/  3     1018.0S
LAKE MURRAY      0230   78     140/  4/  6 1016.6S
ACE BASIN NERRS  0230   81        CALM     1019.0R
FORT PULASKI     0300   81 84  180/  5/ 10 1019.0
SAPELO ISLAND    0300   81     170/ 12     1019.0

$$

ANZ835-935-AMZ111-154-330-350-352-354-370-450-454-472-230400-
...C-MAN AND BUOY OBSERVATIONS...

STATION/POSITION TIME  TEMP    WIND        PRES    WAVE   SWELL
                       AIR SEA DIR/SP/G            HT/PER HT/PER/DIR
                 (UTC) (F)     (DEG/KT/KT) (MB)    (FT/S) (FT/S/D)
BUOY 41004       0310   81 81  190/ 12/ 14 1018.6
BUOY 41008       0250   81 81  160/ 14/ 17 1018.3R   3/ 8   2/120/ 8
FOLLY BEACH CMAN 0300   81     180/ 12/ 13 1019.5R
CAPERS NEARSHORE 0308   84 83  200/ 12/ 16 1018.8R
FRIPP NEARSHORE  0308   82 83  180/ 12/ 16 1018.5R


STATION/POSITION TIME  TEMP    WIND        PRES    WAVE   SWELL
                       AIR SEA DIR/SP/G            HT/PER HT/PER/DIR
                 (UTC) (F)     (DEG/KT/KT) (MB)    (FT/S) (FT/S/D)
5E ST. MARYS GA  0230      81                N/A     3/ 4
FRYING PAN BUOY  0310   81 81  200/ 12/ 14 1018.5
BUOY 41025       0250   80 80  230/ 12/ 14 1017.8R   3/ 8   3/140/ 8
CAPE LOOKOUT NC  0300   79     230/  5/  7 1018.1S
BUOY 41002       0250   80 82  200/ 10/ 12 1020.5S   5/ 8   5/100/ 8
BUOY 41010       0310   82 83  130/ 10/ 16 1019.6
ST AUGUSTINE FL  0300   78 79  180/ 10/ 11 1019.6R


$$




USA.gov is the U.S. government's official web portal to all federal, state and local government web resources and services.